Year,Month,Day,Hour,Minute,Value (Times are PST for windspeed in km/hr)
2019,07,17,00,00,6.70
2019,07,17,00,01,7.20
2019,07,17,00,02,7.30
2019,07,17,00,03,8.10
2019,07,17,00,04,5.70
2019,07,17,00,05,5.60
2019,07,17,00,06,6.00
2019,07,17,00,07,6.40
2019,07,17,00,08,5.80
2019,07,17,00,09,9.40
2019,07,17,00,10,7.00
2019,07,17,00,11,8.50
2019,07,17,00,12,6.40
2019,07,17,00,13,5.70
2019,07,17,00,14,6.10
2019,07,17,00,15,3.90
2019,07,17,00,16,2.80
2019,07,17,00,17,3.80
2019,07,17,00,18,3.40
2019,07,17,00,19,0.20
2019,07,17,00,20,0.10
2019,07,17,00,21,2.90
2019,07,17,00,22,1.30
2019,07,17,00,23,0.60
2019,07,17,00,24,2.00
2019,07,17,00,25,3.80
2019,07,17,00,26,6.40
2019,07,17,00,27,3.50
2019,07,17,00,28,5.60
2019,07,17,00,29,5.80
2019,07,17,00,30,4.00
2019,07,17,00,31,5.00
2019,07,17,00,32,9.30
2019,07,17,00,33,5.00
2019,07,17,00,34,3.10
2019,07,17,00,35,7.00
2019,07,17,00,36,7.10
2019,07,17,00,37,3.80
2019,07,17,00,38,5.40
2019,07,17,00,39,6.50
2019,07,17,00,40,7.20
2019,07,17,00,41,5.30
2019,07,17,00,42,6.70
2019,07,17,00,43,3.80
2019,07,17,00,44,5.10
2019,07,17,00,45,4.80
2019,07,17,00,46,5.10
2019,07,17,00,47,8.10
2019,07,17,00,48,6.40
2019,07,17,00,49,7.50
2019,07,17,00,50,8.20
2019,07,17,00,51,7.30
2019,07,17,00,52,9.90
2019,07,17,00,53,6.90
2019,07,17,00,54,6.30
2019,07,17,00,55,9.10
2019,07,17,00,56,6.80
2019,07,17,00,57,10.10
2019,07,17,00,58,8.90
2019,07,17,00,59,6.80
2019,07,17,01,00,8.00
2019,07,17,01,01,7.60
2019,07,17,01,02,3.10
2019,07,17,01,03,4.30
2019,07,17,01,04,4.70
2019,07,17,01,05,2.60
2019,07,17,01,06,4.80
2019,07,17,01,07,8.00
2019,07,17,01,08,9.00
2019,07,17,01,09,6.00
2019,07,17,01,10,8.10
2019,07,17,01,11,7.50
2019,07,17,01,12,5.90
2019,07,17,01,13,5.80
2019,07,17,01,14,5.10
2019,07,17,01,15,5.00
2019,07,17,01,16,6.10
2019,07,17,01,17,8.10
2019,07,17,01,18,6.90
2019,07,17,01,19,6.80
2019,07,17,01,20,7.30
2019,07,17,01,21,7.00
2019,07,17,01,22,6.00
2019,07,17,01,23,5.60
2019,07,17,01,24,1.50
2019,07,17,01,25,0.30
2019,07,17,01,26,0.30
2019,07,17,01,27,1.40
2019,07,17,01,28,2.40
2019,07,17,01,29,3.40
2019,07,17,01,30,1.40
2019,07,17,01,31,2.70
2019,07,17,01,32,3.90
2019,07,17,01,33,3.00
2019,07,17,01,34,2.00
2019,07,17,01,35,5.70
2019,07,17,01,36,2.70
2019,07,17,01,37,5.80
2019,07,17,01,38,0.70
2019,07,17,01,39,3.90
2019,07,17,01,40,4.10
2019,07,17,01,41,2.30
2019,07,17,01,42,1.50
2019,07,17,01,43,2.30
2019,07,17,01,44,2.50
2019,07,17,01,45,2.80
2019,07,17,01,46,3.50
2019,07,17,01,47,4.90
2019,07,17,01,48,6.70
2019,07,17,01,49,3.30
2019,07,17,01,50,3.90
2019,07,17,01,51,6.70
2019,07,17,01,52,5.60
2019,07,17,01,53,8.00
2019,07,17,01,54,8.10
2019,07,17,01,55,7.50
2019,07,17,01,56,5.60
2019,07,17,01,57,8.00
2019,07,17,01,58,8.60
2019,07,17,01,59,8.70
2019,07,17,02,00,7.80
2019,07,17,02,01,4.80
2019,07,17,02,02,7.60
2019,07,17,02,03,5.90
2019,07,17,02,04,6.40
2019,07,17,02,05,10.50
2019,07,17,02,06,7.80
2019,07,17,02,07,7.70
2019,07,17,02,08,6.50
2019,07,17,02,09,4.90
2019,07,17,02,10,6.10
2019,07,17,02,11,5.50
2019,07,17,02,12,2.40
2019,07,17,02,13,3.90
2019,07,17,02,14,5.20
2019,07,17,02,15,5.40
2019,07,17,02,16,5.50
2019,07,17,02,17,4.70
2019,07,17,02,18,3.70
2019,07,17,02,19,4.30
2019,07,17,02,20,4.20
2019,07,17,02,21,4.70
2019,07,17,02,22,1.30
2019,07,17,02,23,2.10
2019,07,17,02,24,1.10
2019,07,17,02,25,0.20
2019,07,17,02,26,0.00
2019,07,17,02,27,0.50
2019,07,17,02,28,2.50
2019,07,17,02,29,2.10
2019,07,17,02,30,2.30
2019,07,17,02,31,2.20
2019,07,17,02,32,0.10
2019,07,17,02,33,0.60
2019,07,17,02,34,1.00
2019,07,17,02,35,0.00
2019,07,17,02,36,1.30
2019,07,17,02,37,0.20
2019,07,17,02,38,0.30
2019,07,17,02,39,0.00
2019,07,17,02,40,0.00
2019,07,17,02,41,0.00
2019,07,17,02,42,0.00
2019,07,17,02,43,0.00
2019,07,17,02,44,1.50
2019,07,17,02,45,1.90
2019,07,17,02,46,1.10
2019,07,17,02,47,1.30
2019,07,17,02,48,1.20
2019,07,17,02,49,1.90
2019,07,17,02,50,1.30
2019,07,17,02,51,1.60
2019,07,17,02,52,2.20
2019,07,17,02,53,3.90
2019,07,17,02,54,2.90
2019,07,17,02,55,2.30
2019,07,17,02,56,2.50
2019,07,17,02,57,2.70
2019,07,17,02,58,1.00
2019,07,17,02,59,0.80
2019,07,17,03,00,0.00
2019,07,17,03,01,0.00
2019,07,17,03,02,1.00
2019,07,17,03,03,1.90
2019,07,17,03,04,2.40
2019,07,17,03,05,1.50
2019,07,17,03,06,1.40
2019,07,17,03,07,1.90
2019,07,17,03,08,0.80
2019,07,17,03,09,0.00
2019,07,17,03,10,0.00
2019,07,17,03,11,0.00
2019,07,17,03,12,0.00
2019,07,17,03,13,0.20
2019,07,17,03,14,0.30
2019,07,17,03,15,0.80
2019,07,17,03,16,0.10
2019,07,17,03,17,0.60
2019,07,17,03,18,1.80
2019,07,17,03,19,2.10
2019,07,17,03,20,2.30
2019,07,17,03,21,2.40
2019,07,17,03,22,2.00
2019,07,17,03,23,1.80
2019,07,17,03,24,2.20
2019,07,17,03,25,0.30
2019,07,17,03,26,0.00
2019,07,17,03,27,0.00
2019,07,17,03,28,0.00
2019,07,17,03,29,0.00
2019,07,17,03,30,0.60
2019,07,17,03,31,0.40
2019,07,17,03,32,0.00
2019,07,17,03,33,0.00
2019,07,17,03,34,0.10
2019,07,17,03,35,0.00
2019,07,17,03,36,0.00
2019,07,17,03,37,0.00
2019,07,17,03,38,0.20
2019,07,17,03,39,0.10
2019,07,17,03,40,0.10
2019,07,17,03,41,0.00
2019,07,17,03,42,0.10
2019,07,17,03,43,0.70
2019,07,17,03,44,1.20
2019,07,17,03,45,0.30
2019,07,17,03,46,0.00
2019,07,17,03,47,0.00
2019,07,17,03,48,0.00
2019,07,17,03,49,0.00
2019,07,17,03,50,0.00
2019,07,17,03,51,0.60
2019,07,17,03,52,0.60
2019,07,17,03,53,0.00
2019,07,17,03,54,0.00
2019,07,17,03,55,0.00
2019,07,17,03,56,0.00
2019,07,17,03,57,0.10
2019,07,17,03,58,0.30
2019,07,17,03,59,0.30
2019,07,17,04,00,0.20
2019,07,17,04,01,0.20
2019,07,17,04,02,1.20
2019,07,17,04,03,0.20
2019,07,17,04,04,0.00
2019,07,17,04,05,0.00
2019,07,17,04,06,0.00
2019,07,17,04,07,0.00
2019,07,17,04,08,0.00
2019,07,17,04,09,0.00
2019,07,17,04,10,0.60
2019,07,17,04,11,0.60
2019,07,17,04,12,0.10
2019,07,17,04,13,1.10
2019,07,17,04,14,0.30
2019,07,17,04,15,2.00
2019,07,17,04,16,1.10
2019,07,17,04,17,1.10
2019,07,17,04,18,0.90
2019,07,17,04,19,0.90
2019,07,17,04,20,0.30
2019,07,17,04,21,1.00
2019,07,17,04,22,0.80
2019,07,17,04,23,0.80
2019,07,17,04,24,0.20
2019,07,17,04,25,0.90
2019,07,17,04,26,0.30
2019,07,17,04,27,2.30
2019,07,17,04,28,2.30
2019,07,17,04,29,1.50
2019,07,17,04,30,2.70
2019,07,17,04,31,1.90
2019,07,17,04,32,2.20
2019,07,17,04,33,3.30
2019,07,17,04,34,3.00
2019,07,17,04,35,1.10
2019,07,17,04,36,0.90
2019,07,17,04,37,1.60
2019,07,17,04,38,1.10
2019,07,17,04,39,1.40
2019,07,17,04,40,1.20
2019,07,17,04,41,1.60
2019,07,17,04,42,1.20
2019,07,17,04,43,1.30
2019,07,17,04,44,2.00
2019,07,17,04,45,3.40
2019,07,17,04,46,3.70
2019,07,17,04,47,2.90
2019,07,17,04,48,0.40
2019,07,17,04,49,0.90
2019,07,17,04,50,2.10
2019,07,17,04,51,0.10
2019,07,17,04,52,0.50
2019,07,17,04,53,2.50
2019,07,17,04,54,2.90
2019,07,17,04,55,1.80
2019,07,17,04,56,0.10
2019,07,17,04,57,0.00
2019,07,17,04,58,0.10
2019,07,17,04,59,1.00
2019,07,17,05,00,0.20
2019,07,17,05,01,0.40
2019,07,17,05,02,0.00
2019,07,17,05,03,0.20
2019,07,17,05,04,0.50
2019,07,17,05,05,0.60
2019,07,17,05,06,2.30
2019,07,17,05,07,1.90
2019,07,17,05,08,3.40
2019,07,17,05,09,1.90
2019,07,17,05,10,0.60
2019,07,17,05,11,0.60
2019,07,17,05,12,1.40
2019,07,17,05,13,2.60
2019,07,17,05,14,0.60
2019,07,17,05,15,0.60
2019,07,17,05,16,0.60
2019,07,17,05,17,1.20
2019,07,17,05,18,2.30
2019,07,17,05,19,2.70
2019,07,17,05,20,2.80
2019,07,17,05,21,1.40
2019,07,17,05,22,2.20
2019,07,17,05,23,0.90
2019,07,17,05,24,1.20
2019,07,17,05,25,0.70
2019,07,17,05,26,0.70
2019,07,17,05,27,2.70
2019,07,17,05,28,2.20
2019,07,17,05,29,2.40
2019,07,17,05,30,2.30
2019,07,17,05,31,2.70
2019,07,17,05,32,2.90
2019,07,17,05,33,2.40
2019,07,17,05,34,1.20
2019,07,17,05,35,1.40
2019,07,17,05,36,0.20
2019,07,17,05,37,0.50
2019,07,17,05,38,0.20
2019,07,17,05,39,0.10
2019,07,17,05,40,2.00
2019,07,17,05,41,1.20
2019,07,17,05,42,1.30
2019,07,17,05,43,0.60
2019,07,17,05,44,0.90
2019,07,17,05,45,1.50
2019,07,17,05,46,1.40
2019,07,17,05,47,1.00
2019,07,17,05,48,0.20
2019,07,17,05,49,0.70
2019,07,17,05,50,1.80
2019,07,17,05,51,1.20
2019,07,17,05,52,1.90
2019,07,17,05,53,1.40
2019,07,17,05,54,0.40
2019,07,17,05,55,0.80
2019,07,17,05,56,0.50
2019,07,17,05,57,1.20
2019,07,17,05,58,2.20
2019,07,17,05,59,1.10
2019,07,17,06,00,2.00
2019,07,17,06,01,1.40
2019,07,17,06,02,1.00
2019,07,17,06,03,1.10
2019,07,17,06,04,1.40
2019,07,17,06,05,1.20
2019,07,17,06,06,1.70
2019,07,17,06,07,0.60
2019,07,17,06,08,2.40
2019,07,17,06,09,1.50
2019,07,17,06,10,2.30
2019,07,17,06,11,1.60
2019,07,17,06,12,1.80
2019,07,17,06,13,2.40
2019,07,17,06,14,2.50
2019,07,17,06,15,2.20
2019,07,17,06,16,2.60
2019,07,17,06,17,1.40
2019,07,17,06,18,1.10
2019,07,17,06,19,2.90
2019,07,17,06,20,2.30
2019,07,17,06,21,1.80
2019,07,17,06,22,1.30
2019,07,17,06,23,3.20
2019,07,17,06,24,3.00
2019,07,17,06,25,2.10
2019,07,17,06,26,0.50
2019,07,17,06,27,3.50
2019,07,17,06,28,3.40
2019,07,17,06,29,1.70
2019,07,17,06,30,3.20
2019,07,17,06,31,2.60
2019,07,17,06,32,2.00
2019,07,17,06,33,2.20
2019,07,17,06,34,3.60
2019,07,17,06,35,2.00
2019,07,17,06,36,3.10
2019,07,17,06,37,2.10
2019,07,17,06,38,2.20
2019,07,17,06,39,2.70
2019,07,17,06,40,2.40
2019,07,17,06,41,1.70
2019,07,17,06,42,1.50
2019,07,17,06,43,3.10
2019,07,17,06,44,1.50
2019,07,17,06,45,1.10
2019,07,17,06,46,2.00
2019,07,17,06,47,2.80
2019,07,17,06,48,1.90
2019,07,17,06,49,3.10
2019,07,17,06,50,0.80
2019,07,17,06,51,3.00
2019,07,17,06,52,2.80
2019,07,17,06,53,2.30
2019,07,17,06,54,1.50
2019,07,17,06,55,2.80
2019,07,17,06,56,1.10
2019,07,17,06,57,0.80
2019,07,17,06,58,0.80
2019,07,17,06,59,1.90
2019,07,17,07,00,3.60
2019,07,17,07,01,2.50
2019,07,17,07,02,1.70
2019,07,17,07,03,2.40
2019,07,17,07,04,1.90
2019,07,17,07,05,2.40
2019,07,17,07,06,1.60
2019,07,17,07,07,2.90
2019,07,17,07,08,3.70
2019,07,17,07,09,2.50
2019,07,17,07,10,3.50
2019,07,17,07,11,4.70
2019,07,17,07,12,1.80
2019,07,17,07,13,2.50
2019,07,17,07,14,3.80
2019,07,17,07,15,1.30
2019,07,17,07,16,2.30
2019,07,17,07,17,1.60
2019,07,17,07,18,2.00
2019,07,17,07,19,3.10
2019,07,17,07,20,2.10
2019,07,17,07,21,1.60
2019,07,17,07,22,0.90
2019,07,17,07,23,1.00
2019,07,17,07,24,0.90
2019,07,17,07,25,0.40
2019,07,17,07,26,1.90
2019,07,17,07,27,2.70
2019,07,17,07,28,3.70
2019,07,17,07,29,1.40
2019,07,17,07,30,1.40
2019,07,17,07,31,3.40
2019,07,17,07,32,1.00
2019,07,17,07,33,3.60
2019,07,17,07,34,2.80
2019,07,17,07,35,1.50
2019,07,17,07,36,1.00
2019,07,17,07,37,2.40
2019,07,17,07,38,2.60
2019,07,17,07,39,1.60
2019,07,17,07,40,2.70
2019,07,17,07,41,2.40
2019,07,17,07,42,2.90
2019,07,17,07,43,0.80
2019,07,17,07,44,0.70
2019,07,17,07,45,1.20
2019,07,17,07,46,1.10
2019,07,17,07,47,0.60
2019,07,17,07,48,0.30
2019,07,17,07,49,1.70
2019,07,17,07,50,1.80
2019,07,17,07,51,0.30
2019,07,17,07,52,0.90
2019,07,17,07,53,0.90
2019,07,17,07,54,1.20
2019,07,17,07,55,3.50
2019,07,17,07,56,2.70
2019,07,17,07,57,1.20
2019,07,17,07,58,0.60
2019,07,17,07,59,0.20
2019,07,17,08,00,1.00
2019,07,17,08,01,1.00
2019,07,17,08,02,1.00
2019,07,17,08,03,1.00
2019,07,17,08,04,1.20
2019,07,17,08,05,0.20
2019,07,17,08,06,1.00
2019,07,17,08,07,0.90
2019,07,17,08,08,1.70
2019,07,17,08,09,3.00
2019,07,17,08,10,2.40
2019,07,17,08,11,0.70
2019,07,17,08,12,2.30
2019,07,17,08,13,0.20
2019,07,17,08,14,2.10
2019,07,17,08,15,0.80
2019,07,17,08,16,1.40
2019,07,17,08,17,2.90
2019,07,17,08,18,1.70
2019,07,17,08,19,1.40
2019,07,17,08,20,1.50
2019,07,17,08,21,1.40
2019,07,17,08,22,1.90
2019,07,17,08,23,1.60
2019,07,17,08,24,2.50
2019,07,17,08,25,3.00
2019,07,17,08,26,1.60
2019,07,17,08,27,3.10
2019,07,17,08,28,1.10
2019,07,17,08,29,4.80
2019,07,17,08,30,3.10
2019,07,17,08,31,2.30
2019,07,17,08,32,2.30
2019,07,17,08,33,2.70
2019,07,17,08,34,0.30
2019,07,17,08,35,1.90
2019,07,17,08,36,4.20
2019,07,17,08,37,3.70
2019,07,17,08,38,4.10
2019,07,17,08,39,2.20
2019,07,17,08,40,2.60
2019,07,17,08,41,3.00
2019,07,17,08,42,2.60
2019,07,17,08,43,3.50
2019,07,17,08,44,5.40
2019,07,17,08,45,4.40
2019,07,17,08,46,3.90
2019,07,17,08,47,3.90
2019,07,17,08,48,2.50
2019,07,17,08,49,4.30
2019,07,17,08,50,3.60
2019,07,17,08,51,2.50
2019,07,17,08,52,3.90
2019,07,17,08,53,2.20
2019,07,17,08,54,2.80
2019,07,17,08,55,2.70
2019,07,17,08,56,4.60
2019,07,17,08,57,6.80
2019,07,17,08,58,4.30
2019,07,17,08,59,4.80
2019,07,17,09,00,3.00
2019,07,17,09,01,3.80
2019,07,17,09,02,3.90
2019,07,17,09,03,3.00
2019,07,17,09,04,5.30
2019,07,17,09,05,6.00
2019,07,17,09,06,4.40
2019,07,17,09,07,4.30
2019,07,17,09,08,2.20
2019,07,17,09,09,3.20
2019,07,17,09,10,3.20
2019,07,17,09,11,4.10
2019,07,17,09,12,4.00
2019,07,17,09,13,4.60
2019,07,17,09,14,5.40
2019,07,17,09,15,7.10
2019,07,17,09,16,4.80
2019,07,17,09,17,3.10
2019,07,17,09,18,5.30
2019,07,17,09,19,6.10
2019,07,17,09,20,2.90
2019,07,17,09,21,4.20
2019,07,17,09,22,3.50
2019,07,17,09,23,3.70
2019,07,17,09,24,3.40
2019,07,17,09,25,5.80
2019,07,17,09,26,1.90
2019,07,17,09,27,5.80
2019,07,17,09,28,7.40
2019,07,17,09,29,5.00
2019,07,17,09,30,6.50
2019,07,17,09,31,5.10
2019,07,17,09,32,4.90
2019,07,17,09,33,3.90
2019,07,17,09,34,4.70
2019,07,17,09,35,5.10
2019,07,17,09,36,3.80
2019,07,17,09,37,5.30
2019,07,17,09,38,4.80
2019,07,17,09,39,3.20
2019,07,17,09,40,6.90
2019,07,17,09,41,5.30
2019,07,17,09,42,5.30
2019,07,17,09,43,4.60
2019,07,17,09,44,5.40
2019,07,17,09,45,3.10
2019,07,17,09,46,5.60
2019,07,17,09,47,4.40
2019,07,17,09,48,2.70
2019,07,17,09,49,3.50
2019,07,17,09,50,3.40
2019,07,17,09,51,1.00
2019,07,17,09,52,3.00
2019,07,17,09,53,3.70
2019,07,17,09,54,3.10
2019,07,17,09,55,4.00
2019,07,17,09,56,1.80
2019,07,17,09,57,0.80
2019,07,17,09,58,3.60
2019,07,17,09,59,3.00
2019,07,17,10,00,5.30
2019,07,17,10,01,3.60
2019,07,17,10,02,2.10
2019,07,17,10,03,1.70
2019,07,17,10,04,2.90
2019,07,17,10,05,2.50
2019,07,17,10,06,1.50
2019,07,17,10,07,2.20
2019,07,17,10,08,1.40
2019,07,17,10,09,1.50
2019,07,17,10,10,2.20
2019,07,17,10,11,4.30
2019,07,17,10,12,2.50
2019,07,17,10,13,2.50
2019,07,17,10,14,4.70
2019,07,17,10,15,0.80
2019,07,17,10,16,1.40
2019,07,17,10,17,5.20
2019,07,17,10,18,6.40
2019,07,17,10,19,4.20
2019,07,17,10,20,5.60
2019,07,17,10,21,1.70
2019,07,17,10,22,2.30
2019,07,17,10,23,3.40
2019,07,17,10,24,6.00
2019,07,17,10,25,2.70
2019,07,17,10,26,1.80
2019,07,17,10,27,4.70
2019,07,17,10,28,2.30
2019,07,17,10,29,2.10
2019,07,17,10,30,1.50
2019,07,17,10,31,2.60
2019,07,17,10,32,1.50
2019,07,17,10,33,0.50
2019,07,17,10,34,0.30
2019,07,17,10,35,0.60
2019,07,17,10,36,2.90
2019,07,17,10,37,2.80
2019,07,17,10,38,1.40
2019,07,17,10,39,2.80
2019,07,17,10,40,2.40
2019,07,17,10,41,2.70
2019,07,17,10,42,2.60
2019,07,17,10,43,1.20
2019,07,17,10,44,2.60
2019,07,17,10,45,1.80
2019,07,17,10,46,2.10
2019,07,17,10,47,0.90
2019,07,17,10,48,3.40
2019,07,17,10,49,1.90
2019,07,17,10,50,0.40
2019,07,17,10,51,4.00
2019,07,17,10,52,5.20
2019,07,17,10,53,2.20
2019,07,17,10,54,3.20
2019,07,17,10,55,5.50
2019,07,17,10,56,5.20
2019,07,17,10,57,5.60
2019,07,17,10,58,3.70
2019,07,17,10,59,6.10
2019,07,17,11,00,6.00
2019,07,17,11,01,5.50
2019,07,17,11,02,2.90
2019,07,17,11,03,4.40
2019,07,17,11,04,4.30
2019,07,17,11,05,5.40
2019,07,17,11,06,7.20
2019,07,17,11,07,6.00
2019,07,17,11,08,4.50
2019,07,17,11,09,2.90
2019,07,17,11,10,3.50
2019,07,17,11,11,4.30
2019,07,17,11,12,3.90
2019,07,17,11,13,5.10
2019,07,17,11,14,3.50
2019,07,17,11,15,4.30
2019,07,17,11,16,2.50
2019,07,17,11,17,6.10
2019,07,17,11,18,6.30
2019,07,17,11,19,6.40
2019,07,17,11,20,5.40
2019,07,17,11,21,8.80
2019,07,17,11,22,9.20
2019,07,17,11,23,6.40
2019,07,17,11,24,3.70
2019,07,17,11,25,4.80
2019,07,17,11,26,5.30
2019,07,17,11,27,3.50
2019,07,17,11,28,5.40
2019,07,17,11,29,4.50
2019,07,17,11,30,4.30
2019,07,17,11,31,3.40
2019,07,17,11,32,5.00
2019,07,17,11,33,4.60
2019,07,17,11,34,4.90
2019,07,17,11,35,3.90
2019,07,17,11,36,3.30
2019,07,17,11,37,2.70
2019,07,17,11,38,5.30
2019,07,17,11,39,3.80
2019,07,17,11,40,3.90
2019,07,17,11,41,3.90
2019,07,17,11,42,4.90
2019,07,17,11,43,5.70
2019,07,17,11,44,4.60
2019,07,17,11,45,5.00
2019,07,17,11,46,4.90
2019,07,17,11,47,10.60
2019,07,17,11,48,7.80
2019,07,17,11,49,5.70
2019,07,17,11,50,3.30
2019,07,17,11,51,3.50
2019,07,17,11,52,3.10
2019,07,17,11,53,4.00
2019,07,17,11,54,5.70
2019,07,17,11,55,7.10
2019,07,17,11,56,9.40
2019,07,17,11,57,7.40
2019,07,17,11,58,6.80
2019,07,17,11,59,5.60
2019,07,17,12,00,5.50
2019,07,17,12,01,4.40
2019,07,17,12,02,3.40
2019,07,17,12,03,4.40
2019,07,17,12,04,5.90
2019,07,17,12,05,3.10
2019,07,17,12,06,3.40
2019,07,17,12,07,2.00
2019,07,17,12,08,1.90
2019,07,17,12,09,0.60
2019,07,17,12,10,2.20
2019,07,17,12,11,3.10
2019,07,17,12,12,3.40
2019,07,17,12,13,2.20
2019,07,17,12,14,3.90
2019,07,17,12,15,3.00
2019,07,17,12,16,2.50
2019,07,17,12,17,2.50
2019,07,17,12,18,3.10
2019,07,17,12,19,2.50
2019,07,17,12,20,3.10
2019,07,17,12,21,3.10
2019,07,17,12,22,3.80
2019,07,17,12,23,3.70
2019,07,17,12,24,4.60
2019,07,17,12,25,5.60
2019,07,17,12,26,5.90
2019,07,17,12,27,5.20
2019,07,17,12,28,3.40
2019,07,17,12,29,5.80
2019,07,17,12,30,4.00
2019,07,17,12,31,2.50
2019,07,17,12,32,5.70
2019,07,17,12,33,3.80
2019,07,17,12,34,2.40
2019,07,17,12,35,1.50
2019,07,17,12,36,2.60
2019,07,17,12,37,0.90
2019,07,17,12,38,3.10
2019,07,17,12,39,2.80
2019,07,17,12,40,3.20
2019,07,17,12,41,3.20
2019,07,17,12,42,3.00
2019,07,17,12,43,2.40
2019,07,17,12,44,0.90
2019,07,17,12,45,0.70
2019,07,17,12,46,2.80
2019,07,17,12,47,2.70
2019,07,17,12,48,2.00
2019,07,17,12,49,2.10
2019,07,17,12,50,0.80
2019,07,17,12,51,0.10
2019,07,17,12,52,0.60
2019,07,17,12,53,2.90
2019,07,17,12,54,4.10
2019,07,17,12,55,2.00
2019,07,17,12,56,1.40
2019,07,17,12,57,3.30
2019,07,17,12,58,2.20
2019,07,17,12,59,3.20
2019,07,17,13,00,5.10
2019,07,17,13,01,2.30
2019,07,17,13,02,4.40
2019,07,17,13,03,3.00
2019,07,17,13,04,2.40
2019,07,17,13,05,4.20
2019,07,17,13,06,3.60
2019,07,17,13,07,3.10
2019,07,17,13,08,6.50
2019,07,17,13,09,3.30
2019,07,17,13,10,3.10
2019,07,17,13,11,6.80
2019,07,17,13,12,7.50
2019,07,17,13,13,13.20
2019,07,17,13,14,9.70
2019,07,17,13,15,8.60
2019,07,17,13,16,10.50
2019,07,17,13,17,13.10
2019,07,17,13,18,8.50
2019,07,17,13,19,10.40
2019,07,17,13,20,10.30
2019,07,17,13,21,7.30
2019,07,17,13,22,6.80
2019,07,17,13,23,5.00
2019,07,17,13,24,6.20
2019,07,17,13,25,4.80
2019,07,17,13,26,4.80
2019,07,17,13,27,2.60
2019,07,17,13,28,2.70
2019,07,17,13,29,2.60
2019,07,17,13,30,4.50
2019,07,17,13,31,5.70
2019,07,17,13,32,3.30
2019,07,17,13,33,3.80
2019,07,17,13,34,4.50
2019,07,17,13,35,4.70
2019,07,17,13,36,3.60
2019,07,17,13,37,5.60
2019,07,17,13,38,4.70
2019,07,17,13,39,6.40
2019,07,17,13,40,5.60
2019,07,17,13,41,5.00
2019,07,17,13,42,3.30
2019,07,17,13,43,4.60
2019,07,17,13,44,6.10
2019,07,17,13,45,4.70
2019,07,17,13,46,3.00
2019,07,17,13,47,2.60
2019,07,17,13,48,4.70
2019,07,17,13,49,6.00
2019,07,17,13,50,6.60
2019,07,17,13,51,7.10
2019,07,17,13,52,3.70
2019,07,17,13,53,3.50
2019,07,17,13,54,5.30
2019,07,17,13,55,4.10
2019,07,17,13,56,7.90
2019,07,17,13,57,8.60
2019,07,17,13,58,8.20
2019,07,17,13,59,5.00
2019,07,17,14,00,10.30
2019,07,17,14,01,8.00
2019,07,17,14,02,7.60
2019,07,17,14,03,7.20
2019,07,17,14,04,6.40
2019,07,17,14,05,2.90
2019,07,17,14,06,7.70
2019,07,17,14,07,6.90
2019,07,17,14,08,5.80
2019,07,17,14,09,6.30
2019,07,17,14,10,7.80
2019,07,17,14,11,5.80
2019,07,17,14,12,8.10
2019,07,17,14,13,3.40
2019,07,17,14,14,1.60
2019,07,17,14,15,2.70
2019,07,17,14,16,4.20
2019,07,17,14,17,6.30
2019,07,17,14,18,6.20
2019,07,17,14,19,6.10
2019,07,17,14,20,3.80
2019,07,17,14,21,5.20
2019,07,17,14,22,6.60
2019,07,17,14,23,4.10
2019,07,17,14,24,5.80
2019,07,17,14,25,5.40
2019,07,17,14,26,3.60
2019,07,17,14,27,3.20
2019,07,17,14,28,2.20
2019,07,17,14,29,0.70
2019,07,17,14,30,5.50
2019,07,17,14,31,6.70
2019,07,17,14,32,5.60
2019,07,17,14,33,4.10
2019,07,17,14,34,5.10
2019,07,17,14,35,6.40
2019,07,17,14,36,21.20
2019,07,17,14,37,11.80
2019,07,17,14,38,8.00
2019,07,17,14,39,6.10
2019,07,17,14,40,6.30
2019,07,17,14,41,1.50
2019,07,17,14,42,3.20
2019,07,17,14,43,10.10
2019,07,17,14,44,8.60
2019,07,17,14,45,8.00
2019,07,17,14,46,7.90
2019,07,17,14,47,11.30
2019,07,17,14,48,4.00
2019,07,17,14,49,2.50
2019,07,17,14,50,3.10
2019,07,17,14,51,3.40
2019,07,17,14,52,2.60
2019,07,17,14,53,1.00
2019,07,17,14,54,3.90
2019,07,17,14,55,2.70
2019,07,17,14,56,3.10
2019,07,17,14,57,12.20
2019,07,17,14,58,9.70
2019,07,17,14,59,8.40
2019,07,17,15,00,9.30
2019,07,17,15,01,10.80
2019,07,17,15,02,10.60
2019,07,17,15,03,5.60
2019,07,17,15,04,2.90
2019,07,17,15,05,3.60
2019,07,17,15,06,2.70
2019,07,17,15,07,1.90
2019,07,17,15,08,7.60
2019,07,17,15,09,5.10
2019,07,17,15,10,9.30
2019,07,17,15,11,9.30
2019,07,17,15,12,8.50
2019,07,17,15,13,5.00
2019,07,17,15,14,6.50
2019,07,17,15,15,3.70
2019,07,17,15,16,2.60
2019,07,17,15,17,7.00
2019,07,17,15,18,7.50
2019,07,17,15,19,7.30
2019,07,17,15,20,5.70
2019,07,17,15,21,5.30
2019,07,17,15,22,4.80
2019,07,17,15,23,3.40
2019,07,17,15,24,5.10
2019,07,17,15,25,10.90
2019,07,17,15,26,10.10
2019,07,17,15,27,6.30
2019,07,17,15,28,3.60
2019,07,17,15,29,4.90
2019,07,17,15,30,7.80
2019,07,17,15,31,5.00
2019,07,17,15,32,10.30
2019,07,17,15,33,14.70
2019,07,17,15,34,10.40
2019,07,17,15,35,7.30
2019,07,17,15,36,7.50
2019,07,17,15,37,9.20
2019,07,17,15,38,11.90
2019,07,17,15,39,10.70
2019,07,17,15,40,5.00
2019,07,17,15,41,10.70
2019,07,17,15,42,14.20
2019,07,17,15,43,14.80
2019,07,17,15,44,24.00
2019,07,17,15,45,11.30
2019,07,17,15,46,7.40
2019,07,17,15,47,6.20
2019,07,17,15,48,5.40
2019,07,17,15,49,1.90
2019,07,17,15,50,3.50
2019,07,17,15,51,4.70
2019,07,17,15,52,3.80
2019,07,17,15,53,2.30
2019,07,17,15,54,1.90
2019,07,17,15,55,1.10
2019,07,17,15,56,3.70
2019,07,17,15,57,2.80
2019,07,17,15,58,3.50
2019,07,17,15,59,3.10
2019,07,17,16,00,0.40
2019,07,17,16,01,1.20
2019,07,17,16,02,3.10
2019,07,17,16,03,1.40
2019,07,17,16,04,3.10
2019,07,17,16,05,8.50
2019,07,17,16,06,17.90
2019,07,17,16,07,19.80
2019,07,17,16,08,16.90
2019,07,17,16,09,12.40
2019,07,17,16,10,8.60
2019,07,17,16,11,11.30
2019,07,17,16,12,13.80
2019,07,17,16,13,9.70
2019,07,17,16,14,10.90
2019,07,17,16,15,15.20
2019,07,17,16,16,19.50
2019,07,17,16,17,17.60
2019,07,17,16,18,13.90
2019,07,17,16,19,22.40
2019,07,17,16,20,22.30
2019,07,17,16,21,18.40
2019,07,17,16,22,15.40
2019,07,17,16,23,18.30
2019,07,17,16,24,20.80
2019,07,17,16,25,17.80
2019,07,17,16,26,13.40
2019,07,17,16,27,8.90
2019,07,17,16,28,9.70
2019,07,17,16,29,8.50
2019,07,17,16,30,9.70
2019,07,17,16,31,12.20
2019,07,17,16,32,12.20
2019,07,17,16,33,9.90
2019,07,17,16,34,11.10
2019,07,17,16,35,6.10
2019,07,17,16,36,8.60
2019,07,17,16,37,13.00
2019,07,17,16,38,14.00
2019,07,17,16,39,14.60
2019,07,17,16,40,13.00
2019,07,17,16,41,13.60
2019,07,17,16,42,6.20
2019,07,17,16,43,10.80
2019,07,17,16,44,6.90
2019,07,17,16,45,13.80
2019,07,17,16,46,15.10
2019,07,17,16,47,12.40
2019,07,17,16,48,15.20
2019,07,17,16,49,16.20
2019,07,17,16,50,9.00
2019,07,17,16,51,9.80
2019,07,17,16,52,9.60
2019,07,17,16,53,13.60
2019,07,17,16,54,15.90
2019,07,17,16,55,15.30
2019,07,17,16,56,13.60
2019,07,17,16,57,4.30
2019,07,17,16,58,7.00
2019,07,17,16,59,4.70
2019,07,17,17,00,8.90
2019,07,17,17,01,9.10
2019,07,17,17,02,7.20
2019,07,17,17,03,12.00
2019,07,17,17,04,8.30
2019,07,17,17,05,9.70
2019,07,17,17,06,9.10
2019,07,17,17,07,16.30
2019,07,17,17,08,15.70
2019,07,17,17,09,10.90
2019,07,17,17,10,13.80
2019,07,17,17,11,5.60
2019,07,17,17,12,11.80
2019,07,17,17,13,20.70
2019,07,17,17,14,15.40
2019,07,17,17,15,18.60
2019,07,17,17,16,17.50
2019,07,17,17,17,12.70
2019,07,17,17,18,15.40
2019,07,17,17,19,20.10
2019,07,17,17,20,19.50
2019,07,17,17,21,22.90
2019,07,17,17,22,17.80
2019,07,17,17,23,21.80
2019,07,17,17,24,18.50
2019,07,17,17,25,14.10
2019,07,17,17,26,18.90
2019,07,17,17,27,10.50
2019,07,17,17,28,13.50
2019,07,17,17,29,14.60
2019,07,17,17,30,12.60
2019,07,17,17,31,10.90
2019,07,17,17,32,17.20
2019,07,17,17,33,23.90
2019,07,17,17,34,20.40
2019,07,17,17,35,16.10
2019,07,17,17,36,15.40
2019,07,17,17,37,11.50
2019,07,17,17,38,15.80
2019,07,17,17,39,16.80
2019,07,17,17,40,19.40
2019,07,17,17,41,15.00
2019,07,17,17,42,18.10
2019,07,17,17,43,16.20
2019,07,17,17,44,15.20
2019,07,17,17,45,12.30
2019,07,17,17,46,11.10
2019,07,17,17,47,16.70
2019,07,17,17,48,10.70
2019,07,17,17,49,12.90
2019,07,17,17,50,9.30
2019,07,17,17,51,9.30
2019,07,17,17,52,7.80
2019,07,17,17,53,5.80
2019,07,17,17,54,9.00
2019,07,17,17,55,8.40
2019,07,17,17,56,12.40
2019,07,17,17,57,13.60
2019,07,17,17,58,10.60
2019,07,17,17,59,10.30
2019,07,17,18,00,13.00
2019,07,17,18,01,13.00